Home   Weather   Surrey   Past weeks

Flag for Canada Past Weather in Surrey, British Columbia, Canada — Yesterday and Last 2 Weeks

Now
42 °F

Quite cool.


Feels Like: 42 °F
Forecast: 41 / 46 °F
Wind: 2 mph from South

Location: P. Meadows Coastal Station

Current Time: Nov 20, 2017 at 11:07:38 am

Latest Report: Nov 20, 2017 at 10:00 am


Visibility: N/A

Pressure: 29.65 "Hg

Humidity: 94%

Dew Point: 41 °F

Location of SurreyLocation

Past Weather in Surrey — Graph

°F

Surrey Temperature Yesterday

Maximum temperature yesterday: 46 °F (at 6:00 am)
Minimum temperature yesterday: 38 °F (at 11:00 pm)
Average temperature yesterday: 42 °F

High & Low Weather Summary for the Past Weeks

 TemperatureHumidityPressure
High52 °F (Nov 10, 12:00 pm)100% (Nov 11, 8:00 am)30.34 "Hg (Nov 11, 8:00 am)
Low24 °F (Nov 6, 5:00 am)31% (Nov 5, 12:00 pm)29.49 "Hg (Nov 15, 11:00 pm)
Average43 °F80%29.89 "Hg
* Reported Nov 5 9:00 am — Nov 20 9:00 am, Surrey. Weather by CustomWeather, © 2017

Note: Actual official high and low records may vary slightly from our data, if they occured in-between our weather recording intervals... More about our weather records

Advertising

Surrey Weather History for the Previous 24 Hours

Scroll right to see more
 ConditionsComfort  
Time TempWeatherWind HumidityBarometerVisibility
9:00 am
Mon, Nov 20
42 °FQuite cool.1 mph94%29.61 "HgN/A
8:00 am41 °FQuite cool.1 mph93%29.57 "HgN/A
7:00 am41 °FQuite cool.2 mph95%29.56 "HgN/A
6:00 am41 °FQuite cool.1 mph95%29.56 "HgN/A
5:00 am40 °FQuite cool.1 mph95%29.57 "HgN/A
4:00 am40 °FQuite cool.2 mph95%29.57 "HgN/A
3:00 am40 °FQuite cool.8 mph93%29.59 "HgN/A
2:00 am40 °FChilly.10 mph94%29.59 "HgN/A
1:00 am40 °FChilly.10 mph92%29.59 "HgN/A
12:00 am39 °FChilly.8 mph91%29.60 "HgN/A
11:00 pm
Sun, Nov 19
38 °FChilly.8 mph93%29.61 "HgN/A
10:00 pm38 °FChilly.9 mph86%29.61 "HgN/A
9:00 pm38 °FChilly.8 mph98%29.62 "HgN/A
8:00 pm40 °FQuite cool.5 mph97%29.61 "HgN/A
7:00 pm42 °FQuite cool.6 mph85%29.61 "HgN/A
6:00 pm42 °FQuite cool.5 mph94%29.62 "HgN/A
5:00 pm40 °FQuite cool.8 mph94%29.61 "HgN/A
4:00 pm40 °FQuite cool.9 mph93%29.63 "HgN/A
3:00 pm41 °FQuite cool.12 mph93%29.64 "HgN/A
2:00 pm43 °FQuite cool.10 mph83%29.65 "HgN/A
1:00 pm42 °FQuite cool.8 mph86%29.68 "HgN/A
12:00 pm42 °FQuite cool.7 mph92%29.72 "HgN/A
11:00 am42 °FQuite cool.7 mph92%29.74 "HgN/A
Weather by CustomWeather, © 2017

See weather overview